# Land Stadt Wetter Temperatur Luftdruck Luftfeuchtigkeit Sichtweite Windgeschwindigkeit Windrichtung Ortszeit
1 et Addis Abeba Clouds 12 1016 54 10000 1 143 02.08.2018 14:23
2 tr Alanya Clouds 8 1012 61 6000 19 230 02.08.2018 14:22
3 au Alice Springs Clouds 24 1017 27 10000 30 130 02.08.2018 14:21
4 ru Amderma Clouds -21 1010 91 4330 20 93 02.08.2018 14:23
5 ru Anadyr Clear -23 1017 77 10000 4 0 02.08.2018 14:23
6 ch Andermatt Snow -4 1018 38 732 11 318 02.08.2018 14:23
7 ad Andorra la Vella Clouds 3 1022 72 10000 2 0 02.08.2018 14:22
8 tr Ankara Snow -1 1000 93 10000 15 270 02.08.2018 14:23
9 mg Antananarivo Clouds 18 1017 94 10000 7 300 02.08.2018 14:21
10 gr Athen Clouds 1 1012 60 8000 26 320 02.08.2018 14:22
11 ck Avarua Clouds 29 1013 65 10000 7 350 02.08.2018 14:22
12 iq Bagdad Mist 12 1012 71 2300 9 80 02.08.2018 14:22
13 th Bangkok Clear 29 1013 69 10000 10 81 02.08.2018 14:21
14 es Barcelona Clouds 7 1023 75 10000 13 310 02.08.2018 14:22
15 de Berlin Clouds -2 1017 86 10000 7 270 02.08.2018 14:21
16 ch Bern Snow -1 1017 100 4200 2 0 02.08.2018 14:23
17 fr Bordeaux Drizzle 11 1024 100 4600 20 270 02.08.2018 14:21
18 de Braunschweig Clouds -4 1016 86 10000 6 100 02.08.2018 14:21
19 de Bremen Snow -1 1016 86 10000 9 120 02.08.2018 14:22
20 ar Buenos Aires Clouds 19 1007 88 4500 15 170 02.08.2018 14:22
21 ma Casablanca Mist 7 1026 93 4000 2 0 02.08.2018 14:23
22 us Chicago Clouds 2 1006 75 10000 11 290 02.08.2018 14:23
23 pe Cusco Clouds 11 1016 76 10000 2 330 02.08.2018 14:23
24 au Darwin Rain 33 1005 66 10000 17 310 02.08.2018 14:22
25 us Death Valley Clear 12 1020 34 10000 3 291 02.08.2018 14:22
26 us Denver Clouds -1 1021 61 10000 9 144 02.08.2018 14:21
27 qa Doha Haze 16 1013 88 4500 2 0 02.08.2018 14:23
28 de Dresden Clouds -4 1017 80 10000 2 0 02.08.2018 14:22
29 ae Dubai Fog 15 1014 100 100 7 170 02.08.2018 14:21
30 ie Dublin Clear 4 1022 87 10000 17 260 02.08.2018 14:21
31 de Emden Clouds -1 1014 96 8960 8 176 02.08.2018 14:21
32 ar Esquel Clouds 13 1020 76 10000 7 320 02.08.2018 14:22
33 us Fairbanks Clear -20 997 77 10000 6 358 02.08.2018 14:23
34 de Flensburg Clouds -2 1016 93 7000 9 160 02.08.2018 14:21
35 de Frankfurt Snow -2 1016 93 5000 7 190 02.08.2018 14:22
36 de Freiburg Snow 0 1017 90 849 14 169 02.08.2018 14:22
37 gb Glasgow Clouds 3 1015 93 10000 20 230 02.08.2018 14:21
38 de Hamburg Clouds -2 1017 86 10000 6 110 02.08.2018 14:21
39 no Hammerfest Snow 1 1009 100 10000 7 240 02.08.2018 14:22
40 de Hannover Clear 0 1016 69 10000 9 150 02.08.2018 14:21
41 vn Hanoi Clouds 16 1027 67 10000 19 40 02.08.2018 14:21
42 de Helgoland Clouds -1 1016 86 9000 9 160 02.08.2018 14:22
43 fi Helsinki Snow -16 1018 92 4000 9 280 02.08.2018 14:21
44 de Hiddensee Clouds -1 1023 89 10000 2 16 02.08.2018 14:21
45 sb Honiara Clouds 30 1007 69 10000 6 30 02.08.2018 14:22
46 us Honolulu Clouds 25 1015 65 10000 7 210 02.08.2018 14:22
47 at Innsbruck Snow -8 1017 92 10000 2 0 02.08.2018 14:23
48 tr Istanbul Snow 0 1010 93 4000 41 350 02.08.2018 14:23
49 in Jagatsukh Clear 10 1023 40 10000 12 28 02.08.2018 14:22
50 id Jakarta Haze 31 1009 65 4000 9 300 02.08.2018 14:22
51 ru Jakutsk Fog -42 1027 66 550 6 264 02.08.2018 14:22
52 af Kabul Haze 3 1019 44 7000 11 0 02.08.2018 14:21
53 eg Kairo Clear 14 1014 47 10000 17 220 02.08.2018 14:22
54 za Kapstadt Clear 17 1012 88 10000 15 220 02.08.2018 14:22
55 de Kassel Snow -3 1016 93 4100 7 180 02.08.2018 14:21
56 ua Kiew Clouds -20 1014 84 6000 7 240 02.08.2018 14:21
57 cd Kisangani Clouds 22 1009 94 10000 4 141 02.08.2018 14:23
58 de Köln Snow -1 1016 86 8000 9 130 02.08.2018 14:21
59 bo La Paz Clouds 7 1035 81 10000 11 340 02.08.2018 14:22
60 es Las Palmas de Gran Canaria Clouds 16 1025 63 10000 26 10 02.08.2018 14:21
61 us Las Vegas Clouds 14 1022 20 10000 9 10 02.08.2018 14:21
62 cn Lhasa Clear 0 1023 53 10000 8 13 02.08.2018 14:22
63 pt Lissabon Clear 6 1029 93 10000 7 10 02.08.2018 14:22
64 gb London Clouds 6 1019 70 10000 20 280 02.08.2018 14:22
65 us Los Angeles Clear 21 1014 34 10000 2 86 02.08.2018 14:22
66 es Madrid Mist -1 1029 93 5000 2 58 02.08.2018 14:23
67 de Magdeburg Clouds -4 1019 89 10000 5 129 02.08.2018 14:22
68 it Mailand Clouds 1 1015 100 10000 2 340 02.08.2018 14:21
69 mv Male Clouds 30 1009 70 10000 6 200 02.08.2018 14:23
70 br Manaus Clear 25 1009 83 10000 7 360 02.08.2018 14:21
71 gb Manchester Clouds 5 1018 87 10000 17 290 02.08.2018 14:21
72 ph Manila Clouds 29 1011 58 10000 6 40 02.08.2018 14:21
73 ma Marrakesch Clear 7 1025 70 10000 6 190 02.08.2018 14:23
74 mx Mexiko Stadt Clouds 14 1026 82 10000 7 40 02.08.2018 14:21
75 us Miami Clouds 16 1018 63 10000 7 300 02.08.2018 14:23
76 uy Montevideo Clouds 21 1004 88 10000 17 210 02.08.2018 14:22
77 ca Montreal Snow -1 989 93 315 13 310 02.08.2018 14:22
78 ru Moskau Snow -19 1008 77 10000 18 310 02.08.2018 14:22
79 in Mumbai Haze 24 1010 73 1700 10 358 02.08.2018 14:22
80 de München Snow -5 1015 92 160 7 208 02.08.2018 14:21
81 jp Nagasaki Clouds 6 1025 49 10000 35 320 02.08.2018 14:21
82 in Nagpur Haze 22 1016 40 4000 4 70 02.08.2018 14:21
83 ke Nairobi Clouds 13 1010 91 10000 7 36 02.08.2018 14:22
84 bs Nassau Clouds 20 1017 64 10000 13 330 02.08.2018 14:22
85 us New York Clear 3 997 65 10000 19 270 02.08.2018 14:22
86 fr Nizza Clear 4 1013 75 10000 20 330 02.08.2018 14:22
87 us Nome Clouds -12 1000 67 10000 9 8 02.08.2018 14:23
88 de Nürnberg Clouds -5 1016 86 10000 7 110 02.08.2018 14:21
89 gl Nuuk Rain -1 1004 59 1300 46 150 02.08.2018 14:22
90 de Oberstdorf Snow -4 1015 87 124 2 140 02.08.2018 14:21
91 no Oslo Clouds -10 1019 79 6728 3 38 02.08.2018 14:23
92 it Palermo Clouds 8 1018 77 10000 5 24 02.08.2018 14:22
93 es Palma de Mallorca Clear 7 1025 93 10000 4 0 02.08.2018 14:22
94 fr Paris Mist 4 1019 100 5000 4 0 02.08.2018 14:22
95 cn Peking Clear -1 1027 19 10000 7 0 02.08.2018 14:23
96 au Perth Clear 33 1015 18 10000 35 70 02.08.2018 14:21
97 pg Port Moresby Clouds 30 1004 68 10000 11 203 02.08.2018 14:21
98 bo Potisi Clouds 11 1008 73 10000 5 39 02.08.2018 14:22
99 is Reykjavik Clouds 3 1000 81 10000 22 280 02.08.2018 14:22
100 sa Riad Clear 15 1013 47 10000 7 160 02.08.2018 14:21
101 br Rio de Janeiro Clear 27 1009 74 10000 4 50 02.08.2018 14:22
102 it Rom Clear 1 1018 74 10000 4 0 02.08.2018 14:23
103 fi Rovaniemi Clouds -8 1010 93 10000 9 250 02.08.2018 14:21
104 ec San Cristobal Clouds 24 1012 90 10000 10 169 02.08.2018 14:22
105 cl Santiago Clear 21 1015 35 10000 9 150 02.08.2018 14:23
106 do Santo Domingo Clouds 24 1016 94 10000 7 100 02.08.2018 14:21
107 kr Seoul Clear -4 1029 28 10000 4 310 02.08.2018 14:21
108 es Sevilla Clear 5 1029 87 10000 9 40 02.08.2018 14:22
109 cn Shanghai Clear 5 1035 38 10000 18 360 02.08.2018 14:21
110 bg Sofia Clear -9 1014 85 10000 7 300 02.08.2018 14:21
111 se Stockholm Clouds -4 1019 93 10000 3 218 02.08.2018 14:23
112 de Stuttgart Snow -3 1015 100 3000 2 0 02.08.2018 14:22
113 ru Surgut Snow -14 992 85 7000 9 187 02.08.2018 14:23
114 fj Suva Rain 32 1010 66 10000 13 50 02.08.2018 14:21
115 au Sydney Clouds 23 1005 66 10000 10 166 02.08.2018 14:22
116 es Tarifa Clouds 13 1028 77 10000 32 60 02.08.2018 14:21
117 jp Tokio Clouds 8 1014 49 10000 11 30 02.08.2018 14:22
118 de Torfhaus Clouds -3 1014 81 10000 4 147 02.08.2018 14:22
119 de Trier Snow -3 1015 86 9000 3 218 02.08.2018 14:21
120 us Tucson Clear 15 1017 11 10000 7 300 02.08.2018 14:21
121 mn Ulaanbaatar Clear -23 1014 54 10000 4 264 02.08.2018 14:23
122 mn Uliastai Clear -12 1032 74 10000 5 78 02.08.2018 14:23
123 ar Ushuaia Clouds 10 1007 76 10000 28 270 02.08.2018 14:22
124 mx Veracruz Drizzle 19 1020 30 9656 10 117 02.08.2018 14:21
125 bg Warna Clear -6 1014 68 10000 15 270 02.08.2018 14:21
126 nz Wellington Clouds 20 995 60 10000 43 340 02.08.2018 14:23
127 ru Werchojansk Clouds -42 1031 77 9213 1 150 02.08.2018 14:22
128 at Wien Clouds -3 1016 68 10000 22 310 02.08.2018 14:22